Regional Weather Roundup
Issued by NWS

Home | Current Version | Previous Version | Text Only | Print | Product List | Glossary Off
Versions: 1 2 3 4 5 6 7 8 9 10 11 12 13 14 15 16 17 18 19 20 21 22 23 24 25 26 27

000
ASUS45 KCYS 171410
RWRWY

WYOMING REGIONAL WEATHER ROUNDUP
NATIONAL WEATHER SERVICE CHEYENNE WY
700 AM MST SUN DEC 17 2017

NOTE:  "FAIR" INDICATES FEW OR NO CLOUDS BELOW 12,000 FEET
WITH NO SIGNIFICANT WEATHER AND/OR OBSTRUCTIONS TO VISIBILITY.

WYZ001-171500-
YELLOWSTONE NATIONAL PARK

CITY           SKY/WX    TMP DP  RH WIND       PRES   REMARKS
LK YELLOWSTONE   N/A     -4  -8  83 CALM      30.04R
W YELLOWSTONE  NOT AVBL

$$
WYZ002>013-054>058-071-098>099-171500-
NORTHERN WYOMING

CITY           SKY/WX    TMP DP  RH WIND       PRES   REMARKS
JACKSON        CLOUDY     5   1  85 NE5       30.07R WCI  -4
CODY           FLURRIES  28  13  53 W15G26    29.89F WCI  16
GREYBULL       CLOUDY    20  19  96 CALM      29.98S
WORLAND        FAIR      19  19 100 SE6       29.96F WCI  11
SHERIDAN       FOG       21  20  96 SW3       29.92F VSB 1/2
BUFFALO        CLOUDY    20  13  74 SW3       29.89F
GILLETTE       MOCLDY    26  23  88 S16       29.92F WCI  14
HULETT         CLOUDY    30  27  86 S9        29.94F WCI  22
NEWCASTLE      FLURRIES  27  27 100 SE3       30.00S

$$
WYZ014>020-022>026-101>103-171500-
CENTRAL WYOMING

CITY           SKY/WX    TMP DP  RH WIND       PRES   REMARKS
BIG PINEY      FAIR      13   8  81 N13       30.03R WCI  -2
PINEDALE       FAIR      12   9  85 W9        30.02R WCI   0
DUBOIS         FAIR      18   9  68 NW18G25   29.93S WCI   2
LANDER         FAIR      19  16  88 SW3       29.94F
RIVERTON       FOG       18  16  92 S10       29.95S VSB 1/2 WCI   6
CASPER         FAIR      18  15  88 NW6       29.96S WCI  10
DOUGLAS        CLOUDY    27  24  89 NW8       29.97S WCI  19

$$
WYZ021-027>030-104>119-171500-
SOUTHERN WYOMING

CITY           SKY/WX    TMP DP  RH WIND       PRES   REMARKS
EVANSTON       CLOUDY    19  17  92 CALM      30.08R
ROCK SPRINGS   CLOUDY    20  15  81 SW25      30.02R WCI   2
DIXON          CLOUDY    23  17  77 SE3       30.06R
RAWLINS        CLOUDY    24  20  84 SW14      29.98R WCI  12
SARATOGA       CLOUDY    21  21 100 SE5       29.99R WCI  15
LARAMIE        FOG       16  15  96 CALM      29.94R VSB 1/4
CHEYENNE       CLOUDY    26  26 100 SE5       29.96R WCI  20
TORRINGTON     CLOUDY    28  28 100 S5        30.01S WCI  23
PINE BLUFFS    CLOUDY    28  28 100 MISG      30.01R

$$




USA.gov is the U.S. government's official web portal to all federal, state and local government web resources and services.